Location: Blankensee
(53.5126°N, 14.3055°E)
Time: 18:34:02
(UTC+00:00)

Cosmos 1544 Rocket - Pass Details

Date: 08 August 2020
Orbit: 603 x 632 km, 82.5° (Epoch: 20 September)

Event Time Altitude Azimuth Distance (km) Brightness Sun altitude
Exits shadow 02:37:11 - 212° (SSW) 2,171 5.7 -7.4°
Reaches altitude 10° 02:37:36 10° 214° (SW) 2,013 5.6 -7.3°
Maximum altitude 02:41:53 45° 288° (WNW) 868 4.1 -6.8°
Drops below altitude 10° 02:46:13 10° 1° (N) 2,027 6.8 -6.3°
Sets 02:48:33 0° 8° (N) 2,938 7.8 -6.1°
